Time,TemperatureF,DewpointF,PressureIn,WindDirection,WindDirectionDegrees,WindSpeedMPH,WindSpeedGustMPH,Humidity,HourlyPrecipIn,Conditions,Clouds,dailyrainin,SoftwareType,DateUTC
2013-06-11 00:01:00,58.7,52.5,29.43,ESE,112,0.0,8.0,80,0.14,,,0.00,Weather View 32 v70,2013-06-11 04:01:00,
2013-06-11 00:02:00,58.7,52.2,29.43,ESE,112,0.0,8.0,79,0.14,,,0.00,Weather View 32 v70,2013-06-11 04:02:00,
2013-06-11 00:07:00,58.6,52.1,29.42,NE,45,0.0,8.0,79,0.14,,,0.01,Weather View 32 v70,2013-06-11 04:07:00,
2013-06-11 00:12:00,58.6,52.1,29.42,NNE,22,0.0,8.0,79,0.13,,,0.01,Weather View 32 v70,2013-06-11 04:12:00,
2013-06-11 00:17:00,58.5,52.0,29.41,NNE,22,0.0,8.0,79,0.14,,,0.02,Weather View 32 v70,2013-06-11 04:17:00,
2013-06-11 00:22:00,58.6,52.1,29.41,East,90,0.0,8.0,79,0.12,,,0.02,Weather View 32 v70,2013-06-11 04:22:00,
2013-06-11 00:27:00,58.5,52.0,29.41,SSW,202,0.0,8.0,79,0.11,,,0.02,Weather View 32 v70,2013-06-11 04:27:00,
2013-06-11 00:33:00,58.5,52.0,29.41,SSW,202,0.0,8.0,79,0.10,,,0.02,Weather View 32 v70,2013-06-11 04:33:00,
2013-06-11 00:37:00,58.5,52.0,29.40,SW,225,0.0,8.0,79,0.08,,,0.02,Weather View 32 v70,2013-06-11 04:37:00,
2013-06-11 00:42:00,58.4,51.9,29.40,WNW,292,0.0,8.0,79,0.07,,,0.02,Weather View 32 v70,2013-06-11 04:42:00,
2013-06-11 00:48:00,58.4,51.9,29.40,NW,315,0.0,6.0,79,0.05,,,0.02,Weather View 32 v70,2013-06-11 04:48:00,
2013-06-11 00:53:00,58.3,51.8,29.39,North,360,0.0,6.0,79,0.04,,,0.03,Weather View 32 v70,2013-06-11 04:53:00,
2013-06-11 00:58:00,58.3,51.8,29.39,NNE,22,0.0,6.0,79,0.03,,,0.03,Weather View 32 v70,2013-06-11 04:58:00,
2013-06-11 01:03:00,58.3,51.8,29.39,NNE,22,0.0,6.0,79,0.04,,,0.05,Weather View 32 v70,2013-06-11 05:03:00,
2013-06-11 01:08:00,58.3,51.5,29.38,NNE,22,3.0,6.0,78,0.05,,,0.06,Weather View 32 v70,2013-06-11 05:08:00,
2013-06-11 01:13:00,58.2,51.4,29.37,NE,45,0.0,6.0,78,0.06,,,0.08,Weather View 32 v70,2013-06-11 05:13:00,
2013-06-11 01:18:00,58.2,51.4,29.37,NNW,337,1.0,6.0,78,0.06,,,0.08,Weather View 32 v70,2013-06-11 05:18:00,
2013-06-11 01:23:00,58.1,50.9,29.37,North,360,0.0,6.0,77,0.06,,,0.08,Weather View 32 v70,2013-06-11 05:23:00,
2013-06-11 01:28:00,58.0,50.8,29.37,NNE,22,0.0,6.0,77,0.06,,,0.08,Weather View 32 v70,2013-06-11 05:28:00,
2013-06-11 01:33:00,58.0,50.8,29.36,NE,45,0.0,5.0,77,0.06,,,0.09,Weather View 32 v70,2013-06-11 05:33:00,
2013-06-11 01:38:00,58.0,50.5,29.36,NNW,337,2.0,5.0,76,0.07,,,0.09,Weather View 32 v70,2013-06-11 05:38:00,
2013-06-11 01:43:00,58.0,50.5,29.36,NNE,22,0.0,5.0,76,0.08,,,0.10,Weather View 32 v70,2013-06-11 05:43:00,
2013-06-11 01:48:00,58.0,50.5,29.35,North,360,0.0,5.0,76,0.08,,,0.10,Weather View 32 v70,2013-06-11 05:48:00,
2013-06-11 01:53:00,58.1,49.8,29.35,NNE,22,4.0,5.0,74,0.07,,,0.10,Weather View 32 v70,2013-06-11 05:53:00,
2013-06-11 01:58:00,58.0,50.1,29.35,NNE,22,0.0,6.0,75,-0.03,,,0.10,Weather View 32 v70,2013-06-11 05:58:00,
2013-06-11 02:03:00,58.0,49.7,29.34,NW,315,0.0,6.0,74,0.06,,,0.11,Weather View 32 v70,2013-06-11 06:03:00,
2013-06-11 02:08:00,58.0,49.7,29.34,North,360,1.0,6.0,74,0.05,,,0.11,Weather View 32 v70,2013-06-11 06:08:00,
2013-06-11 02:13:00,58.1,49.5,29.34,NNW,337,2.0,6.0,73,0.03,,,0.11,Weather View 32 v70,2013-06-11 06:13:00,
2013-06-11 02:18:00,58.0,49.4,29.33,NW,315,0.0,6.0,73,0.03,,,0.11,Weather View 32 v70,2013-06-11 06:18:00,
2013-06-11 02:23:00,58.0,49.0,29.33,NNE,22,0.0,6.0,72,0.04,,,0.12,Weather View 32 v70,2013-06-11 06:23:00,
2013-06-11 02:28:00,58.0,49.0,29.33,North,360,0.0,6.0,72,0.04,,,0.12,Weather View 32 v70,2013-06-11 06:28:00,
2013-06-11 02:33:00,58.0,49.0,29.33,North,360,0.0,6.0,72,0.04,,,0.13,Weather View 32 v70,2013-06-11 06:33:00,
2013-06-11 02:38:00,58.0,49.0,29.33,North,360,0.0,6.0,72,0.05,,,0.14,Weather View 32 v70,2013-06-11 06:38:00,
2013-06-11 02:43:00,57.9,48.9,29.33,NNE,22,1.0,6.0,72,0.06,,,0.16,Weather View 32 v70,2013-06-11 06:43:00,
2013-06-11 02:48:00,57.8,48.4,29.33,North,360,0.0,6.0,71,0.07,,,0.17,Weather View 32 v70,2013-06-11 06:48:00,
2013-06-11 02:53:00,57.8,48.4,29.33,North,360,0.0,6.0,71,0.09,,,0.19,Weather View 32 v70,2013-06-11 06:53:00,
2013-06-11 02:58:00,57.8,48.4,29.33,North,360,0.0,6.0,71,0.11,,,0.21,Weather View 32 v70,2013-06-11 06:58:00,
2013-06-11 03:03:00,57.8,48.4,29.33,East,90,0.0,6.0,71,0.11,,,0.22,Weather View 32 v70,2013-06-11 07:03:00,
2013-06-11 03:08:00,57.7,48.3,29.33,ENE,67,3.0,6.0,71,0.12,,,0.23,Weather View 32 v70,2013-06-11 07:08:00,
2013-06-11 03:13:00,57.6,48.2,29.33,ESE,112,2.0,9.0,71,0.13,,,0.24,Weather View 32 v70,2013-06-11 07:13:00,
2013-06-11 03:18:00,57.4,48.1,29.32,SE,135,0.0,9.0,71,0.14,,,0.25,Weather View 32 v70,2013-06-11 07:18:00,
2013-06-11 03:23:00,57.2,47.9,29.32,SSE,157,0.0,9.0,71,0.14,,,0.26,Weather View 32 v70,2013-06-11 07:23:00,
2013-06-11 03:28:00,57.2,47.9,29.32,ESE,112,0.0,9.0,71,0.15,,,0.27,Weather View 32 v70,2013-06-11 07:28:00,
2013-06-11 03:33:00,57.1,47.8,29.31,ENE,67,0.0,9.0,71,0.15,,,0.28,Weather View 32 v70,2013-06-11 07:33:00,
2013-06-11 03:38:00,57.1,47.4,29.31,SSW,202,0.0,9.0,70,0.14,,,0.28,Weather View 32 v70,2013-06-11 07:38:00,
2013-06-11 03:43:00,57.3,46.8,29.31,SE,135,2.0,9.0,68,0.12,,,0.28,Weather View 32 v70,2013-06-11 07:43:00,
2013-06-11 03:48:00,57.4,46.9,29.30,East,90,2.0,9.0,68,0.11,,,0.28,Weather View 32 v70,2013-06-11 07:48:00,
2013-06-11 03:53:00,57.4,47.7,29.30,ESE,112,0.0,9.0,70,0.10,,,0.29,Weather View 32 v70,2013-06-11 07:53:00,
2013-06-11 03:58:00,57.4,48.4,29.29,East,90,0.0,9.0,72,0.08,,,0.29,Weather View 32 v70,2013-06-11 07:58:00,
2013-06-11 04:03:00,57.4,48.8,29.29,ENE,67,3.0,9.0,73,0.08,,,0.30,Weather View 32 v70,2013-06-11 08:03:00,
2013-06-11 04:08:00,57.4,48.8,29.29,NNE,22,0.0,9.0,73,0.07,,,0.30,Weather View 32 v70,2013-06-11 08:08:00,
2013-06-11 04:13:00,57.4,49.5,29.29,NNE,22,3.0,9.0,75,0.06,,,0.30,Weather View 32 v70,2013-06-11 08:13:00,
2013-06-11 04:18:00,57.4,50.6,29.29,North,360,2.0,9.0,78,0.05,,,0.30,Weather View 32 v70,2013-06-11 08:18:00,
2013-06-11 04:23:00,57.3,50.8,29.28,North,360,0.0,9.0,79,0.05,,,0.31,Weather View 32 v70,2013-06-11 08:23:00,
2013-06-11 04:28:00,57.2,50.7,29.28,North,360,4.0,9.0,79,0.04,,,0.31,Weather View 32 v70,2013-06-11 08:28:00,
2013-06-11 04:33:00,57.2,50.7,29.28,North,360,0.0,9.0,79,0.03,,,0.31,Weather View 32 v70,2013-06-11 08:33:00,
2013-06-11 04:38:00,57.1,50.3,29.28,NW,315,0.0,9.0,78,0.03,,,0.31,Weather View 32 v70,2013-06-11 08:38:00,
2013-06-11 04:43:00,57.1,50.3,29.27,NE,45,1.0,9.0,78,0.04,,,0.32,Weather View 32 v70,2013-06-11 08:43:00,
2013-06-11 04:48:00,57.2,50.0,29.27,NE,45,1.0,8.0,77,0.04,,,0.32,Weather View 32 v70,2013-06-11 08:48:00,
2013-06-11 04:53:00,57.2,50.0,29.27,ESE,112,0.0,8.0,77,0.04,,,0.33,Weather View 32 v70,2013-06-11 08:53:00,
2013-06-11 04:58:00,57.1,49.9,29.27,NNE,22,1.0,8.0,77,0.04,,,0.33,Weather View 32 v70,2013-06-11 08:58:00,
2013-06-11 05:03:00,57.0,49.8,29.27,East,90,0.0,7.0,77,0.04,,,0.34,Weather View 32 v70,2013-06-11 09:03:00,
2013-06-11 05:08:00,56.9,49.4,29.26,SE,135,0.0,7.0,76,0.05,,,0.35,Weather View 32 v70,2013-06-11 09:08:00,
2013-06-11 05:13:00,56.9,49.7,29.26,South,180,0.0,7.0,77,0.06,,,0.36,Weather View 32 v70,2013-06-11 09:13:00,
2013-06-11 05:18:00,56.9,49.7,29.26,ESE,112,6.0,7.0,77,0.07,,,0.37,Weather View 32 v70,2013-06-11 09:18:00,
2013-06-11 05:23:00,57.0,50.2,29.26,South,180,0.0,8.0,78,0.08,,,0.39,Weather View 32 v70,2013-06-11 09:23:00,
2013-06-11 05:28:00,56.9,50.1,29.26,ESE,112,0.0,8.0,78,0.10,,,0.42,Weather View 32 v70,2013-06-11 09:28:00,
2013-06-11 05:33:00,56.9,50.1,29.25,East,90,5.0,9.0,78,0.12,,,0.43,Weather View 32 v70,2013-06-11 09:33:00,
2013-06-11 05:38:00,56.9,50.4,29.25,SSE,157,0.0,9.0,79,0.13,,,0.44,Weather View 32 v70,2013-06-11 09:38:00,
2013-06-11 05:43:00,56.9,50.8,29.25,East,90,2.0,9.0,80,0.12,,,0.44,Weather View 32 v70,2013-06-11 09:43:00,
2013-06-11 05:48:00,57.0,50.9,29.24,ENE,67,0.0,9.0,80,0.13,,,0.45,Weather View 32 v70,2013-06-11 09:48:00,
2013-06-11 05:53:00,56.9,50.8,29.24,NNE,22,5.0,9.0,80,0.12,,,0.45,Weather View 32 v70,2013-06-11 09:53:00,
2013-06-11 05:58:00,56.9,51.1,29.24,NNE,22,3.0,9.0,81,0.12,,,0.45,Weather View 32 v70,2013-06-11 09:58:00,
2013-06-11 06:03:00,56.8,51.0,29.24,NNE,22,0.0,9.0,81,0.11,,,0.46,Weather View 32 v70,2013-06-11 10:03:00,
2013-06-11 06:08:00,56.7,50.9,29.24,NNW,337,0.0,9.0,81,0.11,,,0.46,Weather View 32 v70,2013-06-11 10:08:00,
2013-06-11 06:13:00,56.7,50.6,29.23,NNE,22,0.0,9.0,80,0.10,,,0.46,Weather View 32 v70,2013-06-11 10:13:00,
2013-06-11 06:18:00,56.6,50.5,29.23,NW,315,0.0,9.0,80,0.09,,,0.46,Weather View 32 v70,2013-06-11 10:18:00,
2013-06-11 06:23:00,56.6,50.5,29.23,WNW,292,0.0,9.0,80,0.07,,,0.46,Weather View 32 v70,2013-06-11 10:23:00,
2013-06-11 06:28:00,56.6,50.5,29.23,WSW,247,0.0,9.0,80,0.06,,,0.47,Weather View 32 v70,2013-06-11 10:28:00,
2013-06-11 06:33:00,56.8,51.0,29.23,West,270,0.0,9.0,81,0.04,,,0.47,Weather View 32 v70,2013-06-11 10:33:00,
2013-06-11 06:38:00,56.9,50.8,29.23,NNW,337,2.0,9.0,80,0.04,,,0.48,Weather View 32 v70,2013-06-11 10:38:00,
2013-06-11 06:43:00,56.9,50.8,29.23,NNE,22,0.0,9.0,80,0.04,,,0.48,Weather View 32 v70,2013-06-11 10:43:00,
2013-06-11 06:48:00,57.0,50.9,29.23,NNW,337,0.0,6.0,80,0.03,,,0.48,Weather View 32 v70,2013-06-11 10:48:00,
2013-06-11 06:53:00,57.0,50.9,29.23,NNW,337,2.0,6.0,80,0.04,,,0.49,Weather View 32 v70,2013-06-11 10:53:00,
2013-06-11 06:58:00,57.1,50.6,29.23,NNE,22,0.0,6.0,79,0.04,,,0.49,Weather View 32 v70,2013-06-11 10:58:00,
2013-06-11 07:03:00,57.1,50.6,29.23,NNE,22,0.0,5.0,79,0.04,,,0.49,Weather View 32 v70,2013-06-11 11:03:00,
2013-06-11 07:08:00,57.2,50.4,29.22,NNE,22,0.0,5.0,78,0.04,,,0.50,Weather View 32 v70,2013-06-11 11:08:00,
2013-06-11 07:13:00,57.2,50.4,29.22,NW,315,0.0,5.0,78,0.04,,,0.50,Weather View 32 v70,2013-06-11 11:13:00,
2013-06-11 07:18:00,57.4,50.6,29.22,North,360,1.0,5.0,78,0.04,,,0.50,Weather View 32 v70,2013-06-11 11:18:00,
2013-06-11 07:23:00,57.4,50.6,29.22,North,360,2.0,5.0,78,0.05,,,0.51,Weather View 32 v70,2013-06-11 11:23:00,
2013-06-11 07:28:00,57.4,50.2,29.22,NNW,337,5.0,5.0,77,0.04,,,0.51,Weather View 32 v70,2013-06-11 11:28:00,
2013-06-11 07:34:00,57.4,49.9,29.22,NNE,22,3.0,6.0,76,0.04,,,0.51,Weather View 32 v70,2013-06-11 11:34:00,
2013-06-11 07:39:00,57.4,49.9,29.22,SSE,157,0.0,7.0,76,0.03,,,0.51,Weather View 32 v70,2013-06-11 11:39:00,
2013-06-11 07:44:00,57.4,49.9,29.23,SSE,157,6.0,9.0,76,0.03,,,0.51,Weather View 32 v70,2013-06-11 11:44:00,
2013-06-11 07:49:00,57.5,50.0,29.22,East,90,0.0,9.0,76,0.04,,,0.52,Weather View 32 v70,2013-06-11 11:49:00,
2013-06-11 07:54:00,57.6,50.8,29.22,SE,135,2.0,9.0,78,0.03,,,0.52,Weather View 32 v70,2013-06-11 11:54:00,
2013-06-11 07:59:00,57.6,52.5,29.22,SE,135,5.0,15.0,83,0.03,,,0.52,Weather View 32 v70,2013-06-11 11:59:00,
2013-06-11 08:04:00,57.7,53.2,29.22,ESE,112,1.0,15.0,85,0.03,,,0.52,Weather View 32 v70,2013-06-11 12:04:00,
2013-06-11 08:09:00,57.8,53.0,29.22,SSE,157,0.0,15.0,84,0.02,,,0.52,Weather View 32 v70,2013-06-11 12:09:00,
2013-06-11 08:14:00,57.9,52.8,29.22,SSE,157,0.0,15.0,83,0.02,,,0.52,Weather View 32 v70,2013-06-11 12:14:00,
2013-06-11 08:19:00,58.1,53.3,29.22,South,180,0.0,15.0,84,0.03,,,0.53,Weather View 32 v70,2013-06-11 12:19:00,
2013-06-11 08:24:00,58.2,53.4,29.22,ESE,112,0.0,15.0,84,0.02,,,0.53,Weather View 32 v70,2013-06-11 12:24:00,
2013-06-11 08:29:00,58.3,53.5,29.22,ENE,67,0.0,15.0,84,0.02,,,0.53,Weather View 32 v70,2013-06-11 12:29:00,
2013-06-11 08:34:00,58.3,53.5,29.22,ENE,67,4.0,15.0,84,0.02,,,0.53,Weather View 32 v70,2013-06-11 12:34:00,
2013-06-11 08:39:00,58.2,53.7,29.22,ENE,67,5.0,15.0,85,0.02,,,0.53,Weather View 32 v70,2013-06-11 12:39:00,
2013-06-11 08:44:00,58.1,53.3,29.22,ESE,112,3.0,15.0,84,0.03,,,0.54,Weather View 32 v70,2013-06-11 12:44:00,
2013-06-11 08:49:00,57.9,52.8,29.22,East,90,1.0,15.0,83,0.02,,,0.54,Weather View 32 v70,2013-06-11 12:49:00,
2013-06-11 08:54:00,57.9,52.4,29.22,SE,135,0.0,15.0,82,0.02,,,0.54,Weather View 32 v70,2013-06-11 12:54:00,
2013-06-11 08:59:00,57.9,52.1,29.22,ENE,67,1.0,15.0,81,0.02,,,0.54,Weather View 32 v70,2013-06-11 12:59:00,
2013-06-11 09:04:00,58.0,52.5,29.21,East,90,2.0,7.0,82,0.02,,,0.54,Weather View 32 v70,2013-06-11 13:04:00,
2013-06-11 09:09:00,58.0,52.5,29.21,ESE,112,6.0,7.0,82,0.03,,,0.55,Weather View 32 v70,2013-06-11 13:09:00,
2013-06-11 09:14:00,57.8,52.0,29.21,ENE,67,4.0,8.0,81,0.03,,,0.55,Weather View 32 v70,2013-06-11 13:14:00,
2013-06-11 09:19:00,57.7,51.9,29.21,ESE,112,4.0,9.0,81,0.02,,,0.55,Weather View 32 v70,2013-06-11 13:19:00,
2013-06-11 09:24:00,57.6,51.8,29.21,ESE,112,2.0,9.0,81,0.03,,,0.56,Weather View 32 v70,2013-06-11 13:24:00,
2013-06-11 09:29:00,57.4,51.6,29.21,East,90,1.0,9.0,81,0.03,,,0.56,Weather View 32 v70,2013-06-11 13:29:00,
2013-06-11 09:34:00,57.4,50.9,29.21,East,90,3.0,9.0,79,0.04,,,0.57,Weather View 32 v70,2013-06-11 13:34:00,
2013-06-11 09:39:00,57.4,50.9,29.20,ENE,67,3.0,9.0,79,0.05,,,0.58,Weather View 32 v70,2013-06-11 13:39:00,
2013-06-11 09:44:00,57.6,50.8,29.20,ESE,112,0.0,9.0,78,0.04,,,0.59,Weather View 32 v70,2013-06-11 13:44:00,
2013-06-11 09:49:00,57.8,51.0,29.20,ENE,67,0.0,9.0,78,0.05,,,0.60,Weather View 32 v70,2013-06-11 13:49:00,
2013-06-11 09:54:00,57.9,51.1,29.20,NNE,22,0.0,9.0,78,0.06,,,0.60,Weather View 32 v70,2013-06-11 13:54:00,
2013-06-11 09:59:00,58.0,51.5,29.20,NNE,22,0.0,9.0,79,0.07,,,0.61,Weather View 32 v70,2013-06-11 13:59:00,
2013-06-11 10:05:00,57.8,51.0,29.20,East,90,6.0,9.0,78,0.08,,,0.62,Weather View 32 v70,2013-06-11 14:05:00,
2013-06-11 10:10:00,57.7,51.2,29.19,ESE,112,3.0,9.0,79,0.07,,,0.62,Weather View 32 v70,2013-06-11 14:10:00,
2013-06-11 10:15:00,57.7,51.2,29.19,ESE,112,3.0,9.0,79,0.07,,,0.62,Weather View 32 v70,2013-06-11 14:15:00,
2013-06-11 10:20:00,57.9,51.8,29.19,South,180,1.0,9.0,80,0.07,,,0.62,Weather View 32 v70,2013-06-11 14:20:00,
2013-06-11 10:25:00,58.3,52.5,29.19,East,90,0.0,9.0,81,0.06,,,0.62,Weather View 32 v70,2013-06-11 14:25:00,
2013-06-11 10:30:00,58.3,52.8,29.19,ESE,112,0.0,9.0,82,0.07,,,0.63,Weather View 32 v70,2013-06-11 14:30:00,
2013-06-11 10:35:00,58.3,52.8,29.19,SSE,157,2.0,7.0,82,0.06,,,0.63,Weather View 32 v70,2013-06-11 14:35:00,
2013-06-11 10:40:00,58.4,53.2,29.19,ESE,112,0.0,7.0,83,0.05,,,0.63,Weather View 32 v70,2013-06-11 14:40:00,
2013-06-11 10:45:00,58.8,53.3,29.19,South,180,0.0,7.0,82,0.04,,,0.63,Weather View 32 v70,2013-06-11 14:45:00,
2013-06-11 10:50:00,59.0,53.5,29.19,South,180,0.0,7.0,82,0.03,,,0.63,Weather View 32 v70,2013-06-11 14:50:00,
2013-06-11 10:55:00,59.2,53.7,29.19,SSE,157,2.0,7.0,82,0.03,,,0.63,Weather View 32 v70,2013-06-11 14:55:00,
2013-06-11 11:00:00,59.2,53.7,29.18,South,180,4.0,7.0,82,0.02,,,0.63,Weather View 32 v70,2013-06-11 15:00:00,
2013-06-11 11:05:00,59.2,53.7,29.18,SE,135,6.0,7.0,82,0.01,,,0.63,Weather View 32 v70,2013-06-11 15:05:00,
2013-06-11 11:10:00,58.7,53.9,29.18,SSE,157,2.0,7.0,84,0.02,,,0.64,Weather View 32 v70,2013-06-11 15:10:00,
2013-06-11 11:15:00,58.9,53.7,29.18,South,180,2.0,7.0,83,0.02,,,0.64,Weather View 32 v70,2013-06-11 15:15:00,
2013-06-11 11:20:00,58.9,53.7,29.18,South,180,4.0,6.0,83,0.02,,,0.64,Weather View 32 v70,2013-06-11 15:20:00,
2013-06-11 11:25:00,59.1,53.6,29.18,South,180,3.0,6.0,82,0.02,,,0.64,Weather View 32 v70,2013-06-11 15:25:00,
2013-06-11 11:30:00,59.0,53.8,29.18,SE,135,1.0,6.0,83,0.01,,,0.64,Weather View 32 v70,2013-06-11 15:30:00,
2013-06-11 11:35:00,58.8,54.0,29.18,SE,135,0.0,6.0,84,0.02,,,0.65,Weather View 32 v70,2013-06-11 15:35:00,
2013-06-11 11:40:00,58.7,53.9,29.18,SE,135,0.0,6.0,84,0.02,,,0.65,Weather View 32 v70,2013-06-11 15:40:00,
2013-06-11 11:45:00,58.5,53.7,29.18,SSW,202,0.0,6.0,84,0.03,,,0.66,Weather View 32 v70,2013-06-11 15:45:00,
2013-06-11 11:50:00,58.4,53.6,29.17,SW,225,0.0,6.0,84,0.03,,,0.66,Weather View 32 v70,2013-06-11 15:50:00,
2013-06-11 11:55:00,58.3,53.5,29.17,SSW,202,0.0,6.0,84,0.04,,,0.67,Weather View 32 v70,2013-06-11 15:55:00,
2013-06-11 12:00:00,58.2,53.4,29.17,SSW,202,0.0,6.0,84,0.05,,,0.68,Weather View 32 v70,2013-06-11 16:00:00,
2013-06-11 12:05:00,58.2,53.0,29.17,SSW,202,0.0,6.0,83,0.06,,,0.69,Weather View 32 v70,2013-06-11 16:05:00,
2013-06-11 12:10:00,58.3,53.1,29.17,SSW,202,0.0,6.0,83,0.05,,,0.69,Weather View 32 v70,2013-06-11 16:10:00,
2013-06-11 12:15:00,58.4,52.9,29.17,NW,315,0.0,6.0,82,0.05,,,0.69,Weather View 32 v70,2013-06-11 16:15:00,
2013-06-11 12:20:00,58.9,53.4,29.17,NNW,337,0.0,6.0,82,0.05,,,0.69,Weather View 32 v70,2013-06-11 16:20:00,
2013-06-11 12:25:00,59.4,53.6,29.16,North,360,0.0,6.0,81,0.05,,,0.69,Weather View 32 v70,2013-06-11 16:25:00,
2013-06-11 12:30:00,59.8,53.9,29.16,WSW,247,0.0,6.0,81,0.05,,,0.69,Weather View 32 v70,2013-06-11 16:30:00,
2013-06-11 12:35:00,59.8,54.3,29.16,SSW,202,0.0,4.0,82,0.05,,,0.70,Weather View 32 v70,2013-06-11 16:35:00,
2013-06-11 12:40:00,59.9,54.4,29.16,SSW,202,0.0,5.0,82,0.05,,,0.70,Weather View 32 v70,2013-06-11 16:40:00,
2013-06-11 12:45:00,59.8,54.6,29.16,East,90,3.0,6.0,83,0.04,,,0.70,Weather View 32 v70,2013-06-11 16:45:00,
2013-06-11 12:50:00,59.7,54.8,29.15,East,90,6.0,7.0,84,0.04,,,0.70,Weather View 32 v70,2013-06-11 16:50:00,
2013-06-11 12:55:00,59.6,54.7,29.15,SE,135,3.0,7.0,84,0.03,,,0.70,Weather View 32 v70,2013-06-11 16:55:00,
2013-06-11 13:00:00,59.5,54.6,29.15,ESE,112,0.0,7.0,84,0.02,,,0.70,Weather View 32 v70,2013-06-11 17:00:00,
2013-06-11 13:05:00,59.5,54.6,29.15,ESE,112,4.0,7.0,84,0.01,,,0.70,Weather View 32 v70,2013-06-11 17:05:00,
2013-06-11 13:10:00,59.2,54.4,29.15,ESE,112,0.0,7.0,84,0.01,,,0.70,Weather View 32 v70,2013-06-11 17:10:00,
2013-06-11 13:15:00,59.0,54.2,29.15,East,90,2.0,7.0,84,0.01,,,0.70,Weather View 32 v70,2013-06-11 17:15:00,
2013-06-11 13:20:00,58.9,53.7,29.15,East,90,7.0,7.0,83,0.01,,,0.70,Weather View 32 v70,2013-06-11 17:20:00,
2013-06-11 13:25:00,58.9,53.4,29.14,ESE,112,4.0,8.0,82,0.01,,,0.70,Weather View 32 v70,2013-06-11 17:25:00,
2013-06-11 13:30:00,59.1,53.6,29.14,East,90,0.0,8.0,82,0.01,,,0.70,Weather View 32 v70,2013-06-11 17:30:00,
2013-06-11 13:35:00,59.4,53.9,29.14,South,180,3.0,8.0,82,0.00,,,0.70,Weather View 32 v70,2013-06-11 17:35:00,
2013-06-11 13:40:00,59.6,54.1,29.13,SSE,157,0.0,8.0,82,0.00,,,0.70,Weather View 32 v70,2013-06-11 17:40:00,
2013-06-11 13:45:00,60.0,54.5,29.13,South,180,0.0,8.0,82,0.00,,,0.70,Weather View 32 v70,2013-06-11 17:45:00,
2013-06-11 13:50:00,60.6,55.1,29.13,ESE,112,0.0,8.0,82,0.00,,,0.70,Weather View 32 v70,2013-06-11 17:50:00,
2013-06-11 13:55:00,60.9,55.4,29.13,SE,135,2.0,8.0,82,0.00,,,0.70,Weather View 32 v70,2013-06-11 17:55:00,
2013-06-11 14:00:00,61.2,56.0,29.12,South,180,2.0,8.0,83,0.00,,,0.70,Weather View 32 v70,2013-06-11 18:00:00,
2013-06-11 14:05:00,61.8,56.6,29.12,SSE,157,2.0,8.0,83,0.00,,,0.70,Weather View 32 v70,2013-06-11 18:05:00,
2013-06-11 14:10:00,62.1,57.2,29.12,SSE,157,0.0,8.0,84,0.00,,,0.70,Weather View 32 v70,2013-06-11 18:10:00,
2013-06-11 14:15:00,62.3,58.4,29.12,East,90,1.0,9.0,87,0.00,,,0.70,Weather View 32 v70,2013-06-11 18:15:00,
2013-06-11 14:20:00,62.2,58.9,29.12,ENE,67,3.0,9.0,89,0.00,,,0.70,Weather View 32 v70,2013-06-11 18:20:00,
2013-06-11 14:25:00,62.2,58.9,29.12,SE,135,4.0,9.0,89,0.00,,,0.70,Weather View 32 v70,2013-06-11 18:25:00,
2013-06-11 14:30:00,62.0,58.7,29.12,SE,135,4.0,9.0,89,0.00,,,0.70,Weather View 32 v70,2013-06-11 18:30:00,
2013-06-11 14:35:00,62.4,59.1,29.12,SSE,157,2.0,9.0,89,0.00,,,0.70,Weather View 32 v70,2013-06-11 18:35:00,
2013-06-11 14:40:00,62.7,59.4,29.11,SSE,157,0.0,9.0,89,0.00,,,0.70,Weather View 32 v70,2013-06-11 18:40:00,
2013-06-11 14:45:00,63.0,60.3,29.11,ESE,112,0.0,9.0,91,0.00,,,0.70,Weather View 32 v70,2013-06-11 18:45:00,
2013-06-11 14:50:00,62.8,59.8,29.11,ENE,67,2.0,9.0,90,0.00,,,0.70,Weather View 32 v70,2013-06-11 18:50:00,
2013-06-11 14:55:00,62.9,59.9,29.11,SSE,157,0.0,9.0,90,0.00,,,0.70,Weather View 32 v70,2013-06-11 18:55:00,
2013-06-11 15:00:00,63.3,60.6,29.11,SE,135,2.0,9.0,91,0.00,,,0.70,Weather View 32 v70,2013-06-11 19:00:00,
2013-06-11 15:05:00,63.3,60.6,29.11,SSE,157,3.0,9.0,91,0.00,,,0.70,Weather View 32 v70,2013-06-11 19:05:00,
2013-06-11 15:10:00,63.0,60.3,29.11,SSE,157,0.0,9.0,91,0.00,,,0.70,Weather View 32 v70,2013-06-11 19:10:00,
2013-06-11 15:15:00,62.9,60.2,29.10,ENE,67,0.0,9.0,91,0.00,,,0.70,Weather View 32 v70,2013-06-11 19:15:00,
2013-06-11 15:20:00,62.9,60.2,29.10,East,90,2.0,7.0,91,0.00,,,0.70,Weather View 32 v70,2013-06-11 19:20:00,
2013-06-11 15:25:00,62.9,60.2,29.10,ENE,67,0.0,7.0,91,0.00,,,0.70,Weather View 32 v70,2013-06-11 19:25:00,
2013-06-11 15:30:00,63.3,60.9,29.10,ENE,67,0.0,6.0,92,0.00,,,0.70,Weather View 32 v70,2013-06-11 19:30:00,
2013-06-11 15:35:00,63.5,61.1,29.10,ENE,67,0.0,6.0,92,0.00,,,0.70,Weather View 32 v70,2013-06-11 19:35:00,
2013-06-11 15:40:00,63.5,61.1,29.10,East,90,0.0,6.0,92,0.00,,,0.70,Weather View 32 v70,2013-06-11 19:40:00,
2013-06-11 15:45:00,63.2,60.5,29.10,ESE,112,0.0,6.0,91,0.00,,,0.70,Weather View 32 v70,2013-06-11 19:45:00,
2013-06-11 15:50:00,63.0,60.6,29.09,ESE,112,0.0,6.0,92,0.00,,,0.70,Weather View 32 v70,2013-06-11 19:50:00,
2013-06-11 15:55:00,63.0,60.6,29.09,ESE,112,0.0,6.0,92,0.00,,,0.70,Weather View 32 v70,2013-06-11 19:55:00,
2013-06-11 16:00:00,63.0,60.6,29.09,ESE,112,0.0,6.0,92,0.00,,,0.70,Weather View 32 v70,2013-06-11 20:00:00,
2013-06-11 16:05:00,62.8,60.1,29.09,WSW,247,0.0,6.0,91,0.00,,,0.70,Weather View 32 v70,2013-06-11 20:05:00,
2013-06-11 16:10:00,62.6,60.2,29.09,WSW,247,0.0,6.0,92,0.00,,,0.70,Weather View 32 v70,2013-06-11 20:10:00,
2013-06-11 16:15:00,62.4,60.0,29.09,North,360,0.0,6.0,92,0.00,,,0.70,Weather View 32 v70,2013-06-11 20:15:00,
2013-06-11 16:20:00,62.3,59.9,29.09,NW,315,0.0,6.0,92,0.00,,,0.70,Weather View 32 v70,2013-06-11 20:20:00,
2013-06-11 16:25:00,62.1,59.7,29.09,North,360,0.0,6.0,92,0.00,,,0.70,Weather View 32 v70,2013-06-11 20:25:00,
2013-06-11 16:30:00,61.9,59.5,29.09,North,360,2.0,4.0,92,0.00,,,0.71,Weather View 32 v70,2013-06-11 20:30:00,
2013-06-11 16:35:00,61.7,59.3,29.09,NNW,337,3.0,6.0,92,0.01,,,0.72,Weather View 32 v70,2013-06-11 20:35:00,
2013-06-11 16:40:00,61.4,59.0,29.09,North,360,0.0,6.0,92,0.02,,,0.72,Weather View 32 v70,2013-06-11 20:40:00,
2013-06-11 16:45:00,61.0,58.7,29.09,NNE,22,1.0,6.0,92,0.02,,,0.72,Weather View 32 v70,2013-06-11 20:45:00,
2013-06-11 16:50:00,60.8,57.8,29.09,East,90,5.0,6.0,90,0.02,,,0.72,Weather View 32 v70,2013-06-11 20:50:00,
2013-06-11 16:55:00,60.4,57.4,29.08,East,90,2.0,6.0,90,0.02,,,0.72,Weather View 32 v70,2013-06-11 20:55:00,
2013-06-11 17:00:00,60.0,56.7,29.08,East,90,5.0,7.0,89,0.02,,,0.72,Weather View 32 v70,2013-06-11 21:00:00,
2013-06-11 17:05:00,59.8,55.9,29.08,ESE,112,2.0,7.0,87,0.02,,,0.72,Weather View 32 v70,2013-06-11 21:05:00,
2013-06-11 17:10:00,59.6,55.4,29.07,SSE,157,6.0,7.0,86,0.02,,,0.72,Weather View 32 v70,2013-06-11 21:10:00,
2013-06-11 17:15:00,59.3,54.5,29.07,SE,135,1.0,9.0,84,0.03,,,0.73,Weather View 32 v70,2013-06-11 21:15:00,
2013-06-11 17:20:00,59.0,54.2,29.07,ESE,112,5.0,9.0,84,0.03,,,0.73,Weather View 32 v70,2013-06-11 21:20:00,
2013-06-11 17:25:00,58.7,53.2,29.07,ESE,112,10.0,10.0,82,0.04,,,0.74,Weather View 32 v70,2013-06-11 21:25:00,
2013-06-11 17:30:00,58.6,52.8,29.06,ESE,112,9.0,10.0,81,0.05,,,0.75,Weather View 32 v70,2013-06-11 21:30:00,
2013-06-11 17:35:00,58.4,51.9,29.06,ESE,112,6.0,10.0,79,0.04,,,0.75,Weather View 32 v70,2013-06-11 21:35:00,
2013-06-11 17:40:00,58.5,52.0,29.06,SSE,157,6.0,10.0,79,0.03,,,0.76,Weather View 32 v70,2013-06-11 21:40:00,
2013-06-11 17:45:00,58.5,52.0,29.06,SE,135,2.0,10.0,79,0.04,,,0.76,Weather View 32 v70,2013-06-11 21:45:00,
2013-06-11 17:50:00,58.4,52.2,29.06,ESE,112,0.0,10.0,80,0.04,,,0.76,Weather View 32 v70,2013-06-11 21:50:00,
2013-06-11 17:55:00,58.4,51.9,29.05,ESE,112,4.0,10.0,79,0.05,,,0.77,Weather View 32 v70,2013-06-11 21:55:00,
2013-06-11 18:01:00,58.6,52.1,29.05,SSE,157,4.0,10.0,79,0.05,,,0.77,Weather View 32 v70,2013-06-11 22:01:00,
2013-06-11 18:06:00,58.7,51.8,29.05,ESE,112,3.0,10.0,78,0.05,,,0.77,Weather View 32 v70,2013-06-11 22:06:00,
2013-06-11 18:11:00,58.7,51.8,29.05,ESE,112,0.0,10.0,78,0.05,,,0.77,Weather View 32 v70,2013-06-11 22:11:00,
2013-06-11 18:16:00,58.7,51.8,29.05,ESE,112,0.0,10.0,78,0.04,,,0.77,Weather View 32 v70,2013-06-11 22:16:00,
2013-06-11 18:21:00,58.7,51.8,29.06,ESE,112,0.0,10.0,78,0.04,,,0.77,Weather View 32 v70,2013-06-11 22:21:00,
2013-06-11 18:26:00,58.6,51.7,29.06,ESE,112,4.0,10.0,78,0.04,,,0.78,Weather View 32 v70,2013-06-11 22:26:00,
2013-06-11 18:31:00,58.5,52.0,29.06,SE,135,2.0,10.0,79,0.03,,,0.78,Weather View 32 v70,2013-06-11 22:31:00,
2013-06-11 18:36:00,58.4,51.9,29.06,ESE,112,1.0,10.0,79,0.03,,,0.79,Weather View 32 v70,2013-06-11 22:36:00,
2013-06-11 18:41:00,58.2,52.0,29.06,ESE,112,0.0,10.0,80,0.05,,,0.80,Weather View 32 v70,2013-06-11 22:41:00,
2013-06-11 18:46:00,58.1,52.3,29.07,ESE,112,0.0,7.0,81,0.04,,,0.80,Weather View 32 v70,2013-06-11 22:46:00,
2013-06-11 18:51:00,58.1,52.3,29.07,WSW,247,0.0,7.0,81,0.04,,,0.80,Weather View 32 v70,2013-06-11 22:51:00,
2013-06-11 18:56:00,58.1,52.3,29.07,WSW,247,0.0,7.0,81,0.04,,,0.82,Weather View 32 v70,2013-06-11 22:56:00,
2013-06-11 19:01:00,58.0,52.2,29.07,WSW,247,0.0,7.0,81,0.05,,,0.83,Weather View 32 v70,2013-06-11 23:01:00,
2013-06-11 19:06:00,58.0,52.2,29.06,SSE,157,0.0,7.0,81,0.07,,,0.84,Weather View 32 v70,2013-06-11 23:06:00,
2013-06-11 19:11:00,57.9,51.8,29.06,ESE,112,0.0,7.0,80,0.09,,,0.86,Weather View 32 v70,2013-06-11 23:11:00,
2013-06-11 19:16:00,57.8,51.3,29.07,ENE,67,0.0,7.0,79,0.10,,,0.87,Weather View 32 v70,2013-06-11 23:16:00,
2013-06-11 19:21:00,57.8,51.3,29.07,ENE,67,0.0,7.0,79,0.11,,,0.88,Weather View 32 v70,2013-06-11 23:21:00,
2013-06-11 19:26:00,57.8,51.3,29.06,East,90,0.0,7.0,79,0.11,,,0.89,Weather View 32 v70,2013-06-11 23:26:00,
2013-06-11 19:31:00,57.7,50.9,29.06,East,90,0.0,7.0,78,0.11,,,0.89,Weather View 32 v70,2013-06-11 23:31:00,
2013-06-11 19:36:00,57.7,50.9,29.06,ESE,112,0.0,7.0,78,0.11,,,0.90,Weather View 32 v70,2013-06-11 23:36:00,
2013-06-11 19:41:00,57.7,50.9,29.06,ESE,112,0.0,7.0,78,0.10,,,0.90,Weather View 32 v70,2013-06-11 23:41:00,
2013-06-11 19:46:00,57.7,50.9,29.06,NE,45,0.0,0.0,78,0.10,,,0.90,Weather View 32 v70,2013-06-11 23:46:00,
2013-06-11 19:51:00,57.7,50.9,29.06,NE,45,0.0,0.0,78,0.10,,,0.90,Weather View 32 v70,2013-06-11 23:51:00,
2013-06-11 19:56:00,57.7,50.9,29.06,NE,45,0.0,0.0,78,0.08,,,0.90,Weather View 32 v70,2013-06-11 23:56:00,
2013-06-11 20:01:00,57.6,50.8,29.06,East,90,0.0,0.0,78,0.08,,,0.91,Weather View 32 v70,2013-06-12 00:01:00,
2013-06-11 20:06:00,57.6,50.4,29.06,ENE,67,0.0,0.0,77,0.07,,,0.91,Weather View 32 v70,2013-06-12 00:06:00,
2013-06-11 20:11:00,57.6,50.4,29.06,East,90,0.0,0.0,77,0.06,,,0.92,Weather View 32 v70,2013-06-12 00:11:00,
2013-06-11 20:16:00,57.4,49.9,29.06,ESE,112,0.0,1.0,76,0.05,,,0.92,Weather View 32 v70,2013-06-12 00:16:00,
2013-06-11 20:21:00,57.4,49.9,29.06,ESE,112,0.0,2.0,76,0.05,,,0.93,Weather View 32 v70,2013-06-12 00:21:00,
2013-06-11 20:26:00,57.3,49.8,29.06,East,90,0.0,2.0,76,0.04,,,0.93,Weather View 32 v70,2013-06-12 00:26:00,
2013-06-11 20:31:00,57.3,49.8,29.06,ESE,112,0.0,2.0,76,0.05,,,0.94,Weather View 32 v70,2013-06-12 00:31:00,
2013-06-11 20:36:00,57.2,49.7,29.06,NNE,22,0.0,2.0,76,0.04,,,0.94,Weather View 32 v70,2013-06-12 00:36:00,
2013-06-11 20:41:00,57.3,49.8,29.06,NNE,22,0.0,2.0,76,0.04,,,0.94,Weather View 32 v70,2013-06-12 00:41:00,
2013-06-11 20:46:00,57.3,49.4,29.06,NNE,22,0.0,2.0,75,0.04,,,0.94,Weather View 32 v70,2013-06-12 00:46:00,
2013-06-11 20:51:00,57.3,49.4,29.06,NNE,22,0.0,2.0,75,0.05,,,0.95,Weather View 32 v70,2013-06-12 00:51:00,
2013-06-11 20:56:00,57.3,49.4,29.06,NNE,22,0.0,2.0,75,0.05,,,0.95,Weather View 32 v70,2013-06-12 00:56:00,
2013-06-11 21:01:00,57.2,49.3,29.06,NNE,22,0.0,2.0,75,0.04,,,0.95,Weather View 32 v70,2013-06-12 01:01:00,
2013-06-11 21:06:00,57.2,49.3,29.06,NNE,22,0.0,2.0,75,0.04,,,0.95,Weather View 32 v70,2013-06-12 01:06:00,
2013-06-11 21:11:00,57.2,49.3,29.07,NNE,22,0.0,2.0,75,0.03,,,0.96,Weather View 32 v70,2013-06-12 01:11:00,
2013-06-11 21:16:00,57.2,49.3,29.07,NNE,22,0.0,2.0,75,0.04,,,0.96,Weather View 32 v70,2013-06-12 01:16:00,
2013-06-11 21:21:00,57.2,49.3,29.07,NNE,22,0.0,2.0,75,0.03,,,0.96,Weather View 32 v70,2013-06-12 01:21:00,
2013-06-11 21:26:00,57.2,49.3,29.07,NNE,22,0.0,2.0,75,0.03,,,0.96,Weather View 32 v70,2013-06-12 01:26:00,
2013-06-11 21:31:00,57.3,49.1,29.07,North,360,0.0,0.0,74,0.02,,,0.96,Weather View 32 v70,2013-06-12 01:31:00,
2013-06-11 21:36:00,57.4,49.2,29.07,NNW,337,0.0,0.0,74,0.02,,,0.96,Weather View 32 v70,2013-06-12 01:36:00,
2013-06-11 21:41:00,57.4,49.2,29.07,North,360,0.0,0.0,74,0.02,,,0.96,Weather View 32 v70,2013-06-12 01:41:00,
2013-06-11 21:47:00,57.3,49.1,29.08,NNE,22,0.0,0.0,74,0.02,,,0.97,Weather View 32 v70,2013-06-12 01:47:00,
2013-06-11 21:52:00,57.3,49.1,29.08,NNE,22,0.0,0.0,74,0.02,,,0.97,Weather View 32 v70,2013-06-12 01:52:00,
2013-06-11 21:57:00,57.4,48.8,29.08,NNW,337,0.0,0.0,73,0.02,,,0.97,Weather View 32 v70,2013-06-12 01:57:00,
2013-06-11 22:02:00,57.3,48.7,29.08,North,360,0.0,0.0,73,0.03,,,0.98,Weather View 32 v70,2013-06-12 02:02:00,
2013-06-11 22:07:00,57.4,48.8,29.08,WNW,292,0.0,0.0,73,0.03,,,0.98,Weather View 32 v70,2013-06-12 02:07:00,
2013-06-11 22:12:00,57.3,48.7,29.08,NNW,337,0.0,5.0,73,0.02,,,0.98,Weather View 32 v70,2013-06-12 02:12:00,
2013-06-11 22:17:00,57.3,48.7,29.08,North,360,0.0,5.0,73,0.03,,,0.99,Weather View 32 v70,2013-06-12 02:17:00,
2013-06-11 22:22:00,57.3,48.7,29.08,WNW,292,6.0,6.0,73,0.03,,,0.99,Weather View 32 v70,2013-06-12 02:22:00,
2013-06-11 22:27:00,57.2,48.6,29.08,NW,315,3.0,6.0,73,0.04,,,1.00,Weather View 32 v70,2013-06-12 02:27:00,
2013-06-11 22:32:00,57.2,47.9,29.08,NW,315,5.0,6.0,71,0.04,,,1.00,Weather View 32 v70,2013-06-12 02:32:00,
2013-06-11 22:37:00,57.2,47.9,29.08,NW,315,4.0,6.0,71,0.04,,,1.00,Weather View 32 v70,2013-06-12 02:37:00,
2013-06-11 22:42:00,57.1,47.4,29.08,NNW,337,0.0,6.0,70,0.04,,,1.00,Weather View 32 v70,2013-06-12 02:42:00,
2013-06-11 22:47:00,57.1,47.4,29.08,NNW,337,0.0,6.0,70,0.04,,,1.01,Weather View 32 v70,2013-06-12 02:47:00,
2013-06-11 22:52:00,57.1,47.4,29.08,NW,315,4.0,6.0,70,0.04,,,1.01,Weather View 32 v70,2013-06-12 02:52:00,
2013-06-11 22:57:00,57.1,47.0,29.08,NW,315,3.0,6.0,69,0.04,,,1.01,Weather View 32 v70,2013-06-12 02:57:00,
2013-06-11 23:02:00,57.1,47.0,29.08,NW,315,7.0,7.0,69,0.03,,,1.01,Weather View 32 v70,2013-06-12 03:02:00,
2013-06-11 23:07:00,57.1,46.6,29.08,WNW,292,1.0,8.0,68,0.04,,,1.02,Weather View 32 v70,2013-06-12 03:07:00,
2013-06-11 23:12:00,57.1,46.6,29.08,WNW,292,5.0,8.0,68,0.04,,,1.03,Weather View 32 v70,2013-06-12 03:12:00,
2013-06-11 23:17:00,57.1,46.2,29.08,WNW,292,3.0,8.0,67,0.04,,,1.03,Weather View 32 v70,2013-06-12 03:17:00,
2013-06-11 23:22:00,57.1,45.8,29.08,NW,315,5.0,8.0,66,0.05,,,1.04,Weather View 32 v70,2013-06-12 03:22:00,
2013-06-11 23:27:00,57.1,45.8,29.08,West,270,5.0,8.0,66,0.04,,,1.04,Weather View 32 v70,2013-06-12 03:27:00,
2013-06-11 23:32:00,57.0,45.3,29.08,NW,315,4.0,9.0,65,0.04,,,1.04,Weather View 32 v70,2013-06-12 03:32:00,
2013-06-11 23:37:00,57.0,45.3,29.08,WNW,292,6.0,9.0,65,0.05,,,1.05,Weather View 32 v70,2013-06-12 03:37:00,
2013-06-11 23:42:00,56.9,45.2,29.08,NW,315,1.0,9.0,65,0.05,,,1.05,Weather View 32 v70,2013-06-12 03:42:00,
2013-06-11 23:47:00,56.9,45.2,29.08,NNW,337,4.0,10.0,65,0.04,,,1.05,Weather View 32 v70,2013-06-12 03:47:00,
2013-06-11 23:52:00,56.8,44.7,29.08,WNW,292,7.0,11.0,64,0.05,,,1.06,Weather View 32 v70,2013-06-12 03:52:00,
2013-06-11 23:57:00,56.7,44.6,29.09,NNE,22,5.0,12.0,64,0.05,,,1.06,Weather View 32 v70,2013-06-12 03:57:00,